Friday, October 19, 2018, 11:04 PM GMT
Back to Local

CYMX, Montreal / Mirabel

Location: , , Canada Lat: 45.683
Local Time: 11:04 PM GMT (23:04 GMT) Lon: -74.033
Time Zone: GMT Elev: 269 ft

Show me the last for .
Show Coded

Time T Td Feel RH Dir Speed Gust Alt SLP Vis Weather Sky Remarks
2018-10-19 22:00 55 45 - 66 230° 7 24 29.74 29.75 25 SCT160 OVC220 None
2018-10-19 21:00 59 45 - 58 230° 9 23 29.75 29.77 45 FEW150 BKN260 None
2018-10-19 20:00 61 43 - 51 220° 18 29 29.75 29.76 45 FEW080 FEW220 SCT260 None
2018-10-19 19:00 59 43 - 54 220° 14 26 29.78 29.79 45 FEW035 FEW220 BKN260 Pressure falling rapidly
2018-10-19 18:00 59 41 - 51 220° 15 25 29.82 29.83 45 FEW030 FEW250 None
2018-10-19 17:00 55 39 - 54 260° 13 26 29.86 29.87 45 FEW020 None
2018-10-19 16:00 52 39 - 62 220° 16 23 29.90 29.91 45 FEW031 BKN260 None
2018-10-19 15:00 50 37 43 61 220° 15 26 29.93 29.94 45 FEW020 FEW260 None
2018-10-19 14:00 45 36 36 70 230° 13 22 29.96 29.98 45 FEW020 FEW260 None
2018-10-19 13:00 41 34 35 75 230° 9 - 29.99 30.01 45 FEW220 FEW250 None
2018-10-19 12:00 37 30 31 74 220° 8 - 30.01 30.02 45 FEW062 FEW220 FEW250 None
2018-10-19 11:00 36 30 31 80 220° 6 - 30.02 30.03 35 FEW100 SCT220 None
2018-10-19 10:00 36 30 30 80 210° 7 - 30.03 30.05 25 SCT062 BKN220 None
2018-10-19 09:00 36 30 30 80 210° 7 - 30.04 30.06 25 SCT063 BKN200 None
2018-10-19 08:00 37 30 32 74 210° 7 - 30.06 30.07 25 OVC064 None
2018-10-19 07:00 37 28 33 69 200° 6 - 30.08 30.10 25 OVC063 None
2018-10-19 06:00 37 28 34 69 210° 5 - 30.11 30.12 25 OVC064 None
2018-10-19 05:00 37 27 33 64 220° 6 - 30.13 30.14 25 SCT050 OVC068 None
2018-10-19 04:00 37 23 31 55 230° 8 - 30.15 30.16 25 BKN041 OVC075 None
2018-10-19 03:00 36 21 32 55 210° 5 - 30.17 30.18 25 OVC075 None
2018-10-19 02:00 36 21 33 55 230° 3 - 30.18 30.19 25 OVC083 None
2018-10-19 01:00 36 19 33 51 240° 3 - 30.19 30.20 25 OVC075 None
2018-10-19 00:00 36 18 31 47 250° 6 - 30.20 30.21 25 FEW080 BKN100 None

Support USWX by starting your Amazon purchase here.